Terminal Aerodrome Forecast
Issued by NWS

Home | Current Version | Previous Version | Text Only | Print | Product List | Glossary On
Versions: 1 2 3 4 5 6 7 8 9 10 11 12 13 14 15 16 17 18 19 20 21 22 23 24 25 26 27 28 29 30 31 32 33 34 35 36 37 38 39 40 41 42 43 44 45 46 47 48 49 50
000
FTAK31 PANC 160532
TAFASN
TAF
PASN 160532Z 1606/1706 06008KT P6SM BKN050
      TEMPO 1606/1610 6SM -SHRA BKN015 OVC025
     FM161000 01015KT 6SM -SHRA SCT008 OVC015
     FM161400 36015KT P6SM VCSH SCT008 OVC015
     FM170000 36015G20KT P6SM -SHRA BKN025=

USA.gov is the U.S. government's official web portal to all federal, state and local government web resources and services.